Wind_Speed
7 6 6 5 5 5 5 5 5 5 5 6 6 7 7 7 7 7 7 8 8 8 9 9 8 8 8 8 8 9 8 8 9 10 10 9 8 9 9 8 8 7 7 7 6 7 8 8 9 9 10 10 10 10 10 10 10 10 10 9 7 6 4 3 5 8 11 11 12 13 16 19 19 19 21 22 21 21 18 14 14 17 15 14 14 15 16 16
9 8 8 7 7 7 7 7 7 7 7 7 8 8 9 9 9 9 9 9 9 9 9 10 9 9 9 9 9 9 9 9 10 10 10 10 8 8 8 7 7 6 7 7 8 9 10 9 9 10 10 11 11 11 10 10 10 11 11 10 8 7 5 4 5 8 12 14 14 15 17 18 18 19 22 23 22 21 19 15 13 15 14 12 13 15 17 18
11 10 10 9 9 9 9 8 9 9 9 10 10 10 11 11 11 11 10 10 10 10 10 11 11 10 11 10 10 10 9 9 10 11 10 9 8 7 7 7 8 8 9 9 10 11 11 10 9 9 9 10 10 10 10 10 10 11 11 10 8 8 5 4 6 8 11 14 15 15 17 17 17 19 21 23 23 20 18 16 13 12 10 11 13 16 18 20
12 12 12 11 11 11 10 10 11 11 11 12 12 12 13 13 12 12 12 12 12 12 12 12 12 12 11 11 11 11 10 10 11 10 9 8 7 8 9 10 10 10 10 10 11 10 10 9 8 8 8 9 10 10 10 10 12 12 11 10 9 9 7 5 8 9 11 14 15 16 18 17 15 16 19 21 23 19 14 13 14 12 9 10 13 15 16 18
14 14 14 13 13 13 12 12 12 13 13 14 14 14 14 14 14 14 14 13 13 13 13 13 13 13 12 12 11 11 10 10 9 8 8 9 10 11 11 11 11 10 9 9 9 9 9 9 9 9 9 10 11 11 11 11 13 13 11 11 10 12 11 8 9 11 12 14 15 17 18 18 17 15 16 19 21 17 11 10 12 12 10 11 13 14 14 14
16 15 15 15 14 14 14 14 14 15 15 16 16 16 16 16 15 15 15 15 15 15 15 14 14 14 13 12 11 10 9 9 9 9 10 12 12 11 11 11 11 10 9 8 9 9 10 11 11 12 12 12 13 12 12 13 15 15 14 13 13 14 14 13 14 14 15 16 16 18 19 18 18 16 15 15 15 14 12 11 12 12 13 13 14 14 13 11
17 17 16 16 16 16 16 16 17 17 17 17 17 17 17 17 17 17 16 16 16 16 16 15 15 14 14 13 11 11 8 8 11 12 11 11 12 11 11 11 11 10 10 10 11 12 12 13 14 15 15 15 15 13 13 15 17 18 17 16 16 17 18 18 18 18 17 18 18 18 19 17 17 17 16 12 11 12 13 13 14 14 14 14 13 12 12 10
18 18 18 18 18 18 18 19 19 19 19 19 19 18 18 18 18 18 18 17 17 17 17 16 15 15 14 14 13 11 9 9 12 12 11 11 11 11 11 11 12 12 13 13 13 14 14 14 15 16 17 16 16 15 16 17 18 19 19 18 19 19 20 19 19 19 18 18 17 18 18 15 15 19 19 12 10 12 12 14 18 17 13 11 12 12 12 12
20 20 20 20 20 20 20 21 20 21 20 20 20 20 20 20 20 19 19 18 17 17 17 16 15 16 16 15 15 13 11 11 11 11 12 12 12 13 13 14 14 14 14 15 15 15 15 16 16 17 17 17 18 18 18 18 18 18 19 21 21 20 20 19 18 17 16 17 15 18 19 14 14 20 18 11 11 12 12 16 21 19 15 12 14 15 15 17
22 22 22 22 22 22 22 22 22 22 21 21 21 21 21 21 20 20 19 18 18 18 18 17 17 17 17 17 17 14 12 13 13 13 14 14 14 14 15 15 15 15 16 16 16 16 16 16 17 17 18 19 19 18 18 18 19 19 20 22 20 20 20 19 18 15 14 16 15 17 19 15 15 19 16 12 12 13 14 18 20 19 18 17 18 18 18 19
24 24 24 23 23 23 23 23 22 22 22 22 22 22 22 21 21 20 20 19 19 19 19 19 18 18 18 18 19 16 15 15 15 14 15 15 16 16 16 16 16 17 18 18 18 18 18 17 18 18 18 19 19 18 19 19 20 20 21 22 20 21 20 17 16 14 14 16 14 17 19 17 16 16 15 14 15 17 18 18 19 20 20 20 21 21 20 20
25 25 25 25 24 24 24 23 23 23 22 22 22 22 22 22 21 21 21 20 20 20 20 20 20 19 20 20 19 18 17 16 16 16 16 17 18 18 18 18 18 18 19 20 20 20 19 19 19 19 18 20 20 19 19 20 20 20 22 24 23 22 19 15 13 13 15 17 15 16 18 17 16 16 16 18 20 23 21 18 19 21 21 21 22 23 22 22
27 27 26 26 25 25 24 24 23 23 23 23 22 22 22 22 22 21 21 21 21 21 21 21 21 21 22 21 20 19 20 19 18 18 18 19 19 20 20 20 19 19 19 20 20 20 20 20 20 20 20 20 20 20 20 21 21 21 23 24 23 22 20 15 14 15 16 17 16 16 18 18 18 17 18 20 24 26 22 19 21 22 21 22 22 23 24 25
28 27 27 26 26 25 24 24 23 23 23 23 23 23 23 23 22 23 23 22 23 23 23 23 23 23 24 22 21 21 21 21 21 21 21 20 20 20 19 19 19 18 19 19 20 20 20 20 19 19 20 19 19 21 22 22 22 22 22 21 21 23 23 18 17 19 18 17 17 18 20 20 19 19 21 23 25 27 24 22 23 23 23 23 24 25 27 27
28 28 27 26 26 25 24 24 24 23 23 23 24 24 24 24 24 24 24 24 24 25 25 25 25 25 26 24 24 24 24 23 23 22 21 20 19 20 20 20 21 20 20 20 20 20 20 20 20 19 20 20 20 22 23 22 21 21 21 20 21 22 24 22 20 20 19 18 19 20 18 19 21 22 23 23 25 26 24 23 24 25 25 26 26 28 29 28
29 28 27 27 26 26 25 25 25 24 24 24 25 25 26 26 26 26 26 26 26 26 26 26 26 26 26 25 25 24 24 23 23 22 22 21 21 21 21 21 20 19 19 19 20 20 20 21 21 21 20 20 22 23 22 22 22 22 21 22 23 23 24 23 20 19 19 18 19 19 20 23 24 24 24 23 23 24 22 23 26 27 27 27 29 30 30 29
29 29 28 28 27 27 27 26 26 26 25 25 26 26 26 26 26 26 26 26 26 26 26 26 26 27 27 26 25 25 24 25 25 24 22 21 20 19 19 18 17 17 17 17 19 19 18 19 20 20 19 20 22 21 20 20 22 23 23 24 24 23 22 23 20 18 17 18 19 21 25 27 27 27 25 20 19 20 20 23 27 28 28 29 30 30 29 27
30 30 29 28 28 28 27 27 26 26 26 26 25 25 25 25 25 25 25 25 25 25 26 26 25 26 26 25 24 23 23 23 22 21 19 19 19 20 20 20 19 19 19 20 21 20 19 19 19 19 19 21 21 20 21 23 24 24 23 23 23 22 21 22 21 17 18 21 22 24 27 29 29 27 21 16 18 18 19 23 26 28 29 29 29 28 26 23
30 30 29 29 28 27 27 27 26 26 25 25 25 24 25 25 25 25 25 25 25 25 25 24 24 24 24 23 21 21 21 21 21 21 22 22 23 23 23 23 23 23 23 24 25 24 23 24 24 24 25 26 24 24 25 25 23 22 21 22 22 23 23 22 21 18 19 23 25 27 30 31 28 22 16 15 18 17 19 24 26 27 28 28 27 24 21 19
30 30 29 28 27 27 26 26 25 25 25 24 24 24 24 24 25 26 26 26 26 25 25 25 25 25 25 25 24 23 24 24 25 25 25 25 24 25 26 26 27 27 27 27 26 26 26 27 28 29 28 26 24 23 24 22 21 21 21 21 21 23 24 22 20 19 21 26 28 27 26 26 23 19 18 17 16 17 21 24 24 25 25 24 20 17 17 20
30 29 29 28 27 26 26 26 25 25 25 24 24 24 24 24 25 26 27 27 26 26 27 26 27 28 27 27 26 25 25 27 27 26 27 27 27 28 29 29 29 29 28 27 27 26 26 27 30 30 26 23 22 21 21 21 20 20 20 20 21 23 25 23 20 20 22 24 24 22 22 22 20 21 21 17 15 17 20 21 21 20 17 15 13 16 20 23
30 29 28 27 27 26 26 26 26 25 25 24 24 24 25 24 26 27 28 29 28 27 28 28 29 30 28 28 28 26 28 29 28 28 28 29 30 31 31 31 31 30 28 28 28 27 27 30 29 25 20 18 18 17 18 19 19 19 19 19 21 21 22 20 17 18 20 22 23 23 24 23 20 22 22 17 15 16 17 18 17 14 12 13 17 21 23 23
30 29 28 27 27 27 27 27 26 26 25 25 25 25 25 26 27 27 28 31 30 29 29 29 31 31 29 30 30 29 30 30 29 29 29 31 32 31 32 33 31 29 28 30 30 28 28 28 22 17 17 17 16 15 17 19 19 19 18 19 21 19 19 18 17 17 20 23 24 24 26 25 19 19 19 14 13 13 14 15 15 14 15 19 23 24 23 23
30 29 28 28 28 28 27 27 27 26 26 26 26 25 25 26 26 27 28 31 33 31 29 29 30 30 29 29 29 29 30 30 30 30 30 31 32 31 31 30 28 28 28 28 27 28 29 24 18 17 18 17 16 15 17 19 19 18 18 19 19 16 16 20 21 20 21 23 22 22 24 20 13 13 14 11 11 13 15 16 17 19 21 24 25 24 24 23
32 31 29 29 29 29 28 28 28 27 26 26 25 25 25 25 26 27 27 29 33 32 29 29 29 28 28 27 27 29 30 31 31 30 29 30 30 30 29 27 27 26 24 23 22 25 25 19 16 17 16 15 15 15 15 17 18 17 16 16 15 14 16 20 21 21 19 17 16 15 13 6 3 6 10 12 14 18 20 20 22 24 26 28 27 25 25 22
33 32 31 30 30 30 29 29 28 26 25 25 25 25 24 25 25 25 25 26 31 32 29 28 26 23 24 25 27 28 29 30 30 29 28 27 28 28 27 26 26 23 19 17 18 21 20 14 13 15 13 13 14 12 11 13 16 17 13 12 13 14 15 16 18 17 13 11 12 12 11 9 10 12 15 20 22 22 22 22 25 27 28 28 26 24 22 20
34 33 32 31 31 30 29 29 27 26 25 25 25 25 24 24 23 22 21 18 21 24 21 20 20 19 19 19 22 24 22 21 23 25 25 24 24 23 22 23 22 18 16 16 16 16 13 8 10 11 11 12 13 9 7 10 14 16 12 11 13 14 14 14 15 16 16 18 19 17 17 19 21 20 18 22 23 21 21 24 26 27 27 26 23 21 20 18
34 33 33 32 31 30 30 29 27 26 26 25 25 24 23 22 21 19 13 6 7 8 9 13 14 15 16 15 17 19 19 15 13 16 19 18 19 18 17 18 17 13 13 16 16 12 6 4 7 8 9 11 9 5 6 10 14 15 12 11 13 13 15 16 16 16 19 20 17 17 18 15 16 17 12 15 20 20 22 25 25 24 23 22 20 19 19 18
34 34 32 32 32 32 31 30 28 27 26 26 25 24 22 20 19 15 8 4 4 4 6 11 12 13 15 15 14 15 16 15 12 12 14 14 15 14 13 13 13 12 12 13 13 11 8 6 7 9 11 9 6 6 10 13 14 15 13 12 13 14 16 17 17 19 19 15 15 20 18 11 11 14 10 13 17 18 21 24 24 22 20 19 18 18 18 18
35 34 33 33 33 32 32 30 28 27 26 25 24 23 21 20 17 13 8 7 7 6 9 11 13 15 15 15 15 14 14 15 15 15 15 14 14 14 13 12 11 11 11 11 10 11 11 10 11 13 12 9 9 11 13 13 15 16 15 15 15 16 18 18 19 19 13 9 14 18 17 14 8 5 7 12 13 14 16 18 18 18 18 18 18 18 18 18
35 34 33 34 32 31 31 29 26 26 25 24 23 22 21 20 19 13 8 12 12 10 12 14 15 18 16 15 15 14 15 16 16 16 16 16 16 15 15 14 13 11 12 14 13 12 13 13 14 14 13 12 13 13 14 14 16 16 16 17 15 12 13 13 12 10 5 5 9 9 10 15 12 6 7 9 11 11 9 7 8 11 13 16 18 19 19 18
34 35 34 32 30 30 29 26 25 25 24 23 22 23 24 19 20 18 11 11 10 9 13 16 17 19 18 17 16 15 16 17 17 17 16 17 17 17 16 14 14 12 11 14 13 13 13 13 12 11 12 14 14 15 16 17 19 19 19 17 10 4 4 4 4 3 5 8 8 6 7 12 18 19 14 12 13 12 8 5 5 7 11 15 18 19 20 19
30 32 33 32 30 29 28 26 25 25 24 25 23 24 25 16 14 22 22 15 8 5 8 12 15 18 18 19 19 18 19 18 18 17 17 18 18 17 16 15 16 15 12 11 11 11 11 12 14 15 15 16 18 18 17 18 18 18 19 17 10 3 1 3 4 2 5 9 8 8 8 8 15 18 16 17 18 16 14 12 10 11 13 15 18 19 20 20
25 26 30 32 31 30 29 27 27 25 24 28 26 23 25 16 8 15 24 24 18 10 8 8 12 17 19 19 19 19 20 19 19 20 19 20 20 20 20 19 19 18 15 13 12 12 11 11 14 16 16 15 16 15 14 14 14 13 14 16 15 11 7 4 3 3 3 6 7 8 6 6 9 9 9 13 17 19 21 18 13 13 14 15 18 20 21 23
22 23 27 30 30 31 30 28 27 26 27 30 27 25 28 24 14 13 18 22 22 19 15 12 12 14 16 18 18 18 19 19 21 22 22 23 23 23 23 22 21 20 18 15 13 13 14 14 15 16 14 12 11 11 12 15 15 13 14 16 19 20 17 9 6 7 6 6 7 9 9 12 16 17 15 12 12 16 17 15 13 14 16 18 20 22 24 25
22 24 28 29 31 31 29 27 26 28 30 29 28 31 35 31 23 18 15 15 19 21 20 18 17 17 17 19 20 21 21 21 22 22 23 25 26 27 26 24 24 22 21 20 16 13 13 13 13 14 14 13 13 12 14 16 15 13 15 18 19 19 18 12 9 10 7 5 9 11 12 17 20 23 23 17 16 17 16 17 18 18 19 20 22 25 26 27
24 26 28 28 29 29 28 29 29 29 29 28 29 35 37 33 27 22 17 15 15 17 20 21 20 19 20 20 21 23 24 23 23 23 23 23 21 25 27 27 26 25 24 22 20 18 17 15 14 15 15 15 15 14 15 19 18 16 16 17 16 14 15 12 6 4 2 2 8 12 14 16 14 16 19 17 17 18 17 17 17 18 20 22 24 27 28 29
27 27 25 24 25 27 28 29 29 30 29 28 32 36 34 32 30 26 22 21 18 17 20 22 20 19 20 21 21 21 23 24 25 24 25 24 19 18 20 21 24 26 26 24 21 20 20 18 17 18 18 17 17 17 17 19 22 22 20 17 15 12 11 12 7 3 2 2 4 10 15 18 18 19 20 18 17 18 17 16 16 18 21 23 25 28 29 29
28 26 25 25 24 26 27 27 28 31 32 33 37 37 35 34 31 26 24 24 24 23 23 24 24 22 22 23 22 20 22 25 26 26 26 25 23 21 19 19 21 23 23 24 24 23 21 17 13 14 17 17 18 21 22 22 23 23 22 20 19 16 13 15 13 7 5 3 4 6 9 15 19 18 16 14 14 16 14 13 14 17 20 23 26 27 28 28
28 28 28 28 28 29 31 31 30 32 36 40 41 38 37 36 31 27 25 26 27 27 26 27 27 26 27 28 26 25 24 25 27 29 29 26 24 23 22 22 22 21 21 21 23 23 22 20 16 14 14 16 19 21 23 24 24 24 24 24 24 23 19 16 17 17 12 4 2 3 5 15 22 17 12 13 14 14 13 12 14 16 19 22 25 26 27 27
28 29 30 29 31 32 33 34 34 35 38 42 41 38 37 35 33 30 28 27 29 28 28 28 28 29 30 30 30 29 26 26 29 30 31 31 27 23 21 21 20 21 20 20 21 22 22 22 21 20 19 20 21 22 22 24 24 25 27 27 27 26 21 13 11 19 20 12 8 6 5 18 29 23 16 16 16 16 15 17 19 18 16 18 22 25 26 26
28 28 28 28 30 31 32 35 37 39 41 42 41 38 36 37 37 34 31 29 29 29 29 29 29 31 32 32 33 32 28 28 30 31 31 32 30 25 20 18 19 20 20 19 20 22 23 23 24 27 28 25 21 20 20 21 21 23 25 26 25 24 24 18 10 14 18 15 17 12 6 20 35 32 26 24 20 18 18 19 19 16 13 15 19 23 24 25
27 27 26 26 28 28 30 33 36 41 43 43 42 40 38 37 36 34 32 31 30 30 30 31 31 31 31 31 33 34 31 29 30 32 31 29 29 27 23 22 23 23 23 23 23 24 25 25 25 26 28 26 23 22 22 20 21 23 24 26 26 25 27 26 22 21 17 15 17 10 5 17 28 28 27 25 21 20 17 14 12 11 13 16 20 24 28 33
27 29 29 30 31 31 32 34 34 37 39 39 38 38 38 38 36 34 33 32 31 31 32 32 32 31 30 30 30 32 33 30 29 30 30 27 27 27 25 25 26 26 27 26 25 24 24 24 23 18 14 16 18 17 19 24 26 26 27 28 29 29 29 28 28 25 17 17 21 13 8 18 23 24 29 29 26 23 16 12 11 13 20 25 29 33 37 41
28 30 32 34 35 35 37 38 37 34 34 34 34 34 34 36 36 35 34 33 32 32 32 32 31 30 30 30 31 32 33 32 29 29 31 29 27 26 24 23 25 26 27 26 26 26 25 25 25 19 11 10 12 10 13 22 27 27 29 30 31 32 31 27 25 20 12 13 19 18 17 23 25 25 27 25 23 23 20 18 23 29 32 34 37 39 41 42
29 31 33 35 36 37 38 38 36 34 33 31 31 31 32 34 35 35 34 34 33 32 32 32 31 31 32 32 32 34 36 36 32 29 31 30 28 27 26 25 26 27 27 28 29 29 28 28 29 29 26 25 25 20 16 18 20 22 23 25 27 27 25 24 20 16 14 12 18 25 26 25 26 25 23 24 25 28 30 33 37 38 39 41 42 42 41 42
32 34 36 35 33 32 35 35 34 35 34 32 32 33 35 35 35 34 35 35 34 32 31 32 33 34 35 35 34 35 37 36 34 32 32 31 29 28 27 28 29 29 30 32 32 31 30 30 31 32 32 32 31 26 22 21 21 23 24 26 27 25 26 28 26 23 24 20 23 34 33 27 32 36 35 34 36 38 40 41 41 42 43 43 42 41 41 42
33 35 36 36 34 32 34 35 34 32 32 33 35 36 37 39 37 36 36 35 35 34 34 35 36 37 37 36 34 35 35 33 33 33 33 32 31 30 30 30 30 32 33 33 33 33 31 31 32 31 30 30 29 26 27 27 26 28 30 33 36 34 35 36 35 36 35 29 31 40 38 34 40 45 42 40 40 42 43 43 42 42 41 40 40 40 40 40
33 34 35 36 37 38 38 36 33 31 31 32 34 36 39 41 41 40 39 36 36 36 36 37 38 37 36 35 35 36 36 34 33 33 32 32 31 32 32 32 31 32 32 31 30 29 29 30 30 29 29 29 28 27 29 30 30 33 36 38 40 40 38 38 39 42 40 36 39 43 42 43 47 46 43 42 41 42 40 38 38 38 38 38 38 38 38 38
35 36 36 36 38 39 39 38 37 36 35 34 35 38 39 40 41 40 39 38 38 38 37 38 38 36 34 34 36 39 39 37 36 34 33 32 32 33 33 33 33 32 31 30 27 26 26 26 25 25 26 27 28 29 29 29 29 32 36 39 39 37 36 39 42 42 39 39 43 42 41 46 45 40 39 37 35 36 35 34 35 36 37 37 36 36 36 35
37 38 38 38 39 39 40 40 40 39 39 40 41 42 41 41 42 40 38 38 38 38 37 36 35 33 33 34 36 38 37 35 35 34 33 33 34 33 32 32 32 32 32 31 29 29 28 26 25 24 21 23 27 25 24 25 25 29 38 42 40 38 40 43 43 41 41 42 40 37 39 41 37 32 31 30 30 32 33 34 35 34 34 34 33 32 31 30
38 39 39 40 41 41 41 41 40 40 42 43 43 42 42 43 42 38 37 36 37 37 37 35 33 32 32 34 35 34 32 32 34 33 31 31 32 33 33 32 31 31 31 29 28 29 28 27 26 22 18 20 22 22 24 23 18 26 42 45 40 40 41 40 40 39 39 37 35 34 35 34 29 26 27 29 30 31 31 32 32 32 32 31 30 30 29 29
Wind_Direction
236 240 244 247 249 251 254 259 265 272 281 287 292 296 299 301 301 300 298 297 296 295 294 294 295 295 295 293 293 292 293 294 291 290 291 292 292 287 288 288 286 285 284 288 288 288 294 299 302 301 302 304 304 305 308 310 311 309 307 314 326 323 316 290 268 272 277 279 280 282 286 292 300 306 304 303 309 310 309 315 311 301 300 301 295 288 284 280
246 249 251 251 251 251 253 255 260 267 273 279 284 289 292 294 295 294 293 292 290 290 291 291 292 292 292 291 290 289 292 294 291 293 293 292 291 286 284 281 278 276 277 283 285 288 293 297 299 299 302 305 305 305 308 311 308 304 303 312 322 309 304 299 282 279 283 286 287 289 291 296 306 308 303 304 308 308 313 324 307 291 294 294 286 280 277 276
252 255 256 256 255 254 254 256 261 266 271 277 282 286 289 290 290 289 288 287 285 285 285 286 287 288 288 289 289 290 293 292 293 294 293 292 291 284 278 278 279 279 281 284 286 289 293 296 300 302 302 302 302 304 308 310 305 300 302 312 316 305 309 305 291 290 293 297 301 303 301 303 307 303 303 307 307 310 323 324 304 292 293 288 281 274 272 275
255 257 258 258 257 256 256 259 263 268 273 278 282 285 286 287 287 286 285 285 284 283 283 283 284 285 287 288 290 293 294 295 296 293 292 290 287 284 283 283 282 282 285 287 287 290 292 297 302 302 301 300 299 306 312 309 301 299 303 310 311 303 306 302 294 298 303 307 309 310 307 307 307 302 305 307 306 318 330 314 306 312 307 294 290 285 282 281
256 257 257 257 257 257 258 261 264 269 273 277 280 282 283 283 283 283 283 283 282 282 281 282 283 284 286 287 291 294 298 301 296 286 288 289 287 287 286 287 287 289 289 289 292 295 296 300 303 302 303 302 303 309 310 302 297 299 304 307 306 300 300 303 302 304 308 308 308 310 309 306 306 306 305 303 308 322 327 311 314 320 315 303 298 300 300 295
256 257 257 257 257 257 259 262 265 269 272 275 277 278 278 278 279 279 279 279 280 280 280 281 282 284 285 287 290 292 299 300 288 284 289 289 290 293 292 293 294 295 294 296 299 300 303 305 306 304 304 303 305 308 304 299 297 298 302 302 299 297 300 308 310 311 314 311 312 311 304 302 308 307 301 302 310 316 314 319 321 316 314 309 304 305 306 303
257 257 257 257 258 259 262 264 267 270 272 273 274 275 275 275 276 276 277 277 278 279 279 281 282 284 285 286 288 289 293 292 287 291 292 290 293 295 295 296 296 297 296 298 299 300 303 304 303 301 302 304 304 304 297 295 296 297 301 300 297 300 307 315 315 318 320 315 313 307 300 307 313 304 301 308 310 305 308 323 328 324 319 312 310 314 309 300
257 257 257 258 259 261 264 266 268 269 270 271 271 272 272 273 274 274 275 276 276 277 278 279 281 283 284 286 286 287 290 287 286 290 291 291 293 293 294 293 293 294 293 294 294 297 299 298 297 297 300 303 300 297 292 290 292 295 300 300 301 305 310 313 314 319 319 312 309 303 303 314 308 297 305 316 304 298 302 320 332 333 329 318 313 310 299 288
254 255 256 257 259 261 263 265 266 267 268 268 269 270 271 271 272 272 273 273 274 275 276 277 279 281 282 284 282 284 289 284 281 285 287 287 287 287 288 288 289 289 289 289 289 291 293 293 294 295 297 296 294 292 290 291 290 293 296 295 299 303 306 306 309 315 310 305 305 301 304 309 296 296 308 311 298 295 298 319 331 333 333 326 311 298 290 290
253 254 255 257 258 260 262 263 265 266 267 268 269 270 270 270 271 271 271 272 272 273 274 276 277 278 279 280 280 282 283 279 278 280 281 282 282 282 283 285 286 287 287 287 287 288 288 289 290 291 291 290 291 290 291 291 289 292 291 292 297 299 301 305 309 312 300 301 303 295 300 302 291 296 304 301 297 297 302 319 330 330 327 318 305 296 293 292
253 254 255 256 258 260 261 263 264 265 266 267 268 268 269 269 270 270 271 271 272 273 274 275 275 276 277 277 278 280 279 276 277 276 276 278 279 280 282 283 284 286 286 286 285 286 285 285 285 286 286 287 289 290 290 289 288 290 290 291 295 294 300 309 312 307 297 303 300 286 293 297 291 294 300 299 299 302 308 319 327 323 316 305 300 298 295 287
253 254 255 257 258 259 260 261 262 263 264 265 266 267 267 268 269 270 270 271 271 272 273 274 274 274 274 274 275 279 278 275 276 275 275 276 277 280 281 283 283 283 283 282 282 283 282 281 281 280 280 282 286 287 286 285 285 288 290 292 293 293 300 311 308 299 298 303 296 286 290 293 294 297 298 300 304 309 316 322 320 311 304 299 299 296 291 283
253 254 255 257 257 258 258 259 260 261 262 263 264 265 266 267 268 269 269 270 271 271 272 272 273 273 272 273 275 277 277 276 276 276 276 276 277 279 279 280 280 279 278 278 279 279 279 279 278 276 277 279 281 281 279 280 282 286 287 287 292 297 301 307 302 295 299 300 296 293 292 294 299 300 299 304 308 311 319 321 308 299 297 297 294 289 286 283
254 254 255 256 256 257 257 258 259 260 262 263 265 266 267 268 268 269 270 270 271 272 272 272 273 273 273 274 275 276 276 278 278 278 278 278 278 277 277 277 276 275 275 275 275 276 276 276 274 274 276 278 278 278 277 278 281 284 282 283 293 297 298 302 299 299 301 297 296 295 292 297 302 301 301 306 306 307 313 311 299 294 295 292 286 283 283 284
254 254 255 255 255 256 256 257 258 260 261 263 265 266 267 268 269 270 270 271 272 272 273 273 274 274 275 275 275 275 277 278 279 279 278 277 277 276 274 274 273 273 273 274 273 273 273 272 272 272 274 276 277 275 275 279 281 281 282 289 297 296 297 300 300 302 302 295 295 295 293 295 298 300 301 303 303 303 305 303 295 294 293 288 284 284 285 286
253 253 254 254 254 255 255 257 258 259 261 263 264 266 268 269 270 271 271 272 272 273 273 273 274 275 275 276 275 275 276 276 276 276 276 277 276 274 273 272 272 271 271 272 272 272 272 270 270 270 270 272 272 272 275 277 276 278 287 295 297 296 298 300 302 305 301 297 300 299 293 292 296 298 299 302 303 300 300 298 294 293 291 287 285 285 287 290
253 253 253 254 254 255 256 257 258 260 261 262 264 266 267 268 269 270 271 271 272 272 272 272 273 274 274 275 275 274 274 273 274 274 274 273 272 271 271 270 268 267 268 272 273 272 271 270 269 268 269 269 266 266 268 269 276 287 295 296 295 295 294 295 299 302 297 296 298 295 291 290 295 298 301 308 306 299 299 294 290 290 289 286 285 286 291 295
254 254 254 255 256 257 258 259 259 260 261 262 263 264 265 267 268 268 269 270 270 270 270 271 272 271 272 274 274 273 271 270 270 270 269 267 268 269 269 268 266 266 269 271 271 271 270 270 269 267 267 264 262 263 264 272 286 293 293 290 289 287 284 286 291 293 290 289 290 288 287 290 294 299 307 312 301 294 293 286 284 286 285 282 284 289 294 296
255 255 255 256 256 257 257 258 258 259 259 260 260 262 264 265 266 267 268 268 268 268 269 270 269 269 271 272 270 267 267 266 265 265 266 267 269 268 267 265 265 266 268 269 270 269 268 267 265 264 265 267 271 275 276 283 288 285 281 279 279 279 277 278 283 288 290 289 288 288 290 292 295 302 309 302 292 287 282 279 279 279 278 280 287 291 291 291
254 254 255 254 254 254 254 254 255 255 256 257 259 261 263 265 267 267 267 267 268 268 268 270 270 269 269 269 266 265 265 264 264 264 265 265 265 266 265 264 266 267 267 268 269 268 267 264 262 265 271 275 279 279 280 281 278 274 272 271 272 274 276 280 285 289 291 290 290 291 291 291 295 300 300 293 287 279 277 278 278 276 276 281 286 286 286 290
251 251 251 250 250 250 250 251 252 253 255 257 259 261 264 266 268 269 269 269 268 269 270 270 270 268 267 268 267 266 265 263 262 263 264 265 264 264 264 264 265 266 268 269 268 268 265 262 266 273 279 279 275 272 272 271 269 268 268 269 270 271 278 286 291 291 290 288 289 291 289 288 292 293 291 290 283 276 276 280 280 276 275 277 279 283 290 297
247 246 246 246 246 246 248 249 251 253 255 258 260 262 265 267 268 270 272 271 269 269 270 269 269 268 268 268 267 265 263 263 264 264 264 265 264 264 265 265 264 266 268 268 268 268 266 268 276 281 277 269 263 261 262 262 262 263 265 268 270 275 284 290 291 289 286 286 289 291 289 288 293 290 289 288 280 275 277 280 279 270 266 274 285 292 296 301
242 243 243 244 245 246 247 249 251 253 255 258 260 263 266 268 270 271 273 274 271 268 268 268 268 269 267 265 265 265 263 263 263 263 262 261 260 261 263 265 266 268 268 268 270 268 267 275 284 279 265 259 255 251 254 257 256 258 262 265 270 278 284 283 287 287 285 288 291 293 294 297 300 292 287 282 274 277 281 277 271 262 269 283 289 294 299 302
240 240 242 243 244 246 247 249 251 253 255 258 261 262 265 268 271 273 275 277 274 268 267 268 267 267 266 264 264 263 262 261 258 256 256 257 258 259 261 264 267 267 267 269 272 269 269 277 277 265 260 256 252 247 247 250 254 258 260 261 269 278 279 279 284 286 287 290 292 297 300 301 300 286 277 267 264 280 284 276 270 267 274 283 288 294 299 301
238 239 240 241 244 246 247 250 252 254 256 258 260 262 265 268 271 274 278 280 278 273 270 270 268 266 264 261 259 257 256 256 254 253 252 253 256 259 261 263 264 265 267 268 268 267 270 273 263 254 252 250 252 249 246 250 258 263 262 263 272 278 276 278 281 283 288 288 288 302 309 300 254 247 257 266 277 286 284 274 268 268 271 278 285 291 294 295
238 239 239 240 243 245 247 250 251 253 255 256 260 263 265 268 271 275 279 282 280 278 276 272 268 266 262 256 251 249 249 250 251 251 251 251 252 256 259 261 262 264 264 260 258 263 269 265 248 243 238 241 247 246 241 245 254 261 268 278 280 278 276 276 277 280 282 275 275 290 292 272 261 256 260 274 282 281 277 271 266 265 268 274 280 284 286 287
239 239 240 240 242 244 246 248 249 251 254 257 259 261 264 267 270 274 281 287 283 279 274 265 258 258 257 248 241 239 240 245 246 245 247 249 249 251 252 254 259 259 250 243 244 259 273 254 231 230 222 226 233 234 226 231 245 256 271 284 283 284 284 279 278 276 273 276 276 276 273 270 273 273 268 269 269 265 262 263 263 264 266 270 274 276 278 280
237 239 240 241 241 244 245 246 249 250 254 257 258 261 262 264 267 270 275 287 285 276 258 241 236 242 241 233 230 228 226 232 237 237 240 243 244 244 243 245 249 245 232 231 235 248 265 226 211 215 215 224 230 225 216 225 241 251 257 266 272 280 281 279 280 277 280 284 277 270 268 264 270 275 267 251 250 250 252 256 262 266 266 267 268 271 272 272
236 238 239 241 241 243 244 247 250 251 255 257 258 260 258 258 260 255 244 229 243 247 236 229 222 226 229 223 221 220 222 229 234 236 235 236 238 237 234 233 231 226 222 227 232 234 239 232 219 219 226 237 243 234 229 230 239 246 249 254 259 263 266 272 276 279 285 281 266 269 265 250 269 278 252 233 238 243 253 259 263 264 263 264 264 265 265 263
236 237 238 241 242 244 246 247 249 251 253 253 255 255 251 250 242 225 212 221 237 248 233 220 216 219 221 222 224 226 229 232 234 235 231 230 231 229 227 222 216 216 221 230 232 230 236 239 232 233 238 239 231 226 226 228 235 244 248 251 255 258 262 267 271 275 283 272 265 274 260 237 264 292 208 215 234 247 257 260 260 260 260 261 259 257 259 254
236 237 238 241 243 246 246 245 246 247 248 249 251 244 235 232 219 203 217 235 244 256 229 212 214 219 223 231 236 239 235 232 232 230 227 226 225 222 219 214 209 210 222 236 244 242 239 239 241 244 239 226 220 221 225 231 238 244 248 250 255 264 269 269 266 261 252 260 275 279 246 226 229 223 197 217 235 236 245 255 263 270 267 262 258 253 248 241
237 237 238 241 242 244 244 243 244 243 244 244 238 220 207 208 209 206 211 227 243 251 222 214 218 221 226 233 236 241 239 237 236 230 225 223 222 222 220 218 215 216 228 239 248 253 249 244 241 233 219 215 220 226 232 238 242 243 244 243 241 270 299 270 245 220 228 257 271 252 225 224 235 244 247 246 236 219 229 266 272 273 272 266 260 251 242 234
234 234 235 238 239 241 242 240 239 240 241 233 218 202 197 199 215 212 205 207 219 225 213 216 219 220 227 232 235 239 239 239 237 230 223 220 221 221 221 224 226 228 239 243 244 254 259 253 242 234 230 231 235 237 242 247 245 244 243 236 217 176 55 257 253 276 261 264 260 232 225 238 248 253 251 247 240 230 244 267 269 264 263 260 255 245 237 232
236 236 235 236 237 239 239 238 238 235 226 215 203 197 203 210 224 209 205 212 220 226 228 220 215 217 225 231 236 240 239 237 234 228 226 224 223 224 225 229 231 234 244 250 249 249 251 253 249 246 244 241 240 241 246 251 248 246 245 238 230 221 212 222 227 211 249 284 267 227 219 240 247 249 244 241 241 242 252 261 263 261 258 256 251 242 236 233
241 243 241 238 236 237 237 238 238 225 211 205 198 200 210 214 215 206 207 217 225 234 237 231 227 223 223 228 231 234 236 236 234 231 231 232 234 237 239 240 239 238 240 243 246 242 241 250 252 247 242 238 237 237 239 242 242 243 238 231 236 238 233 236 253 251 263 300 276 233 226 247 257 264 264 254 250 245 244 252 261 267 265 259 252 244 238 235
235 239 241 238 236 238 236 231 224 210 206 206 201 207 217 218 218 220 219 223 229 236 236 235 236 234 233 234 233 233 234 235 236 234 236 240 243 245 246 246 244 242 241 243 246 243 239 244 243 238 240 241 242 243 239 238 238 237 232 230 235 237 234 239 265 272 268 279 268 250 242 250 261 270 267 260 258 252 245 257 269 272 267 257 248 243 238 234
234 236 237 235 234 233 224 214 210 204 205 207 208 219 225 223 224 228 228 229 231 232 234 234 235 234 236 238 237 235 234 233 234 234 237 241 245 247 246 247 248 247 249 250 248 245 244 246 246 243 243 244 245 245 238 237 238 235 233 237 237 232 230 233 247 283 273 250 265 259 253 252 250 261 268 265 265 263 258 260 263 264 263 255 245 240 235 233
233 233 233 231 229 224 211 203 207 209 207 212 221 229 233 231 231 232 233 236 235 232 232 233 234 237 239 239 241 238 232 231 232 232 234 236 240 245 241 242 247 249 251 250 243 243 247 252 255 247 240 240 241 240 236 234 237 237 236 236 232 225 223 219 213 239 242 229 267 261 262 264 255 257 271 274 272 271 265 259 258 259 257 252 245 238 232 230
229 229 230 228 225 223 216 207 210 212 212 221 229 233 238 238 235 234 236 239 238 234 233 234 235 238 241 243 245 241 234 233 234 233 235 235 237 241 239 241 245 245 244 241 237 240 244 248 253 244 236 234 232 232 233 233 231 231 232 231 230 233 231 223 223 226 219 215 263 268 269 271 267 266 272 273 272 271 267 265 263 258 254 250 244 236 230 229
226 227 230 228 225 224 220 213 211 214 220 229 235 237 241 242 238 234 233 236 238 237 237 239 238 239 244 247 248 245 239 237 237 236 235 234 233 238 240 242 242 238 233 231 232 236 237 238 244 245 236 228 228 234 239 238 233 230 231 231 233 236 236 238 242 241 234 219 231 258 269 271 275 278 272 267 268 267 269 277 276 268 261 252 242 235 233 235
222 223 226 227 226 224 220 215 213 217 225 232 235 236 240 243 244 242 237 236 239 242 242 243 243 244 246 247 248 247 240 233 233 232 233 232 228 228 233 236 237 234 231 231 232 232 233 236 242 247 245 238 237 242 245 241 236 235 237 239 239 237 236 240 248 244 239 232 230 236 265 271 274 279 280 279 279 274 276 283 282 277 264 245 236 235 236 239
223 225 226 227 228 224 219 216 215 217 223 229 231 233 237 242 246 247 245 242 244 247 248 248 248 248 247 247 249 247 237 228 224 221 223 224 220 220 227 236 241 239 235 235 234 234 237 241 244 248 252 249 241 236 235 235 234 233 235 238 239 238 238 236 241 249 244 238 242 245 256 267 270 275 281 283 281 281 284 283 277 266 241 223 225 234 243 255
230 233 234 236 238 233 226 223 220 218 220 224 227 230 233 237 240 242 243 244 246 248 249 250 251 250 250 250 251 249 245 237 229 225 228 231 232 238 246 254 257 252 247 245 243 241 241 238 238 244 250 249 242 235 231 231 233 233 232 235 238 241 244 245 248 254 252 243 243 243 247 261 265 271 277 279 282 286 283 264 241 228 229 238 250 262 275 284
235 240 242 242 244 242 238 237 235 230 228 230 231 232 234 236 237 238 240 242 245 247 248 250 251 253 255 255 257 257 254 250 246 247 254 259 260 262 263 263 262 258 252 250 245 240 237 231 229 234 248 251 247 242 235 233 236 238 239 240 242 246 248 250 251 252 252 249 247 245 253 257 260 266 270 274 280 280 265 232 229 257 273 279 284 288 292 293
235 238 241 242 243 244 242 242 242 241 241 240 241 241 242 244 244 244 243 244 245 246 248 251 253 256 258 258 259 260 259 257 257 259 264 267 268 269 268 263 261 257 250 245 239 235 234 231 227 226 230 242 245 241 238 241 243 245 247 249 251 253 252 250 249 244 238 244 243 239 246 257 261 265 266 267 269 268 263 267 278 285 288 291 293 295 295 295
236 237 238 238 239 240 241 242 242 242 243 244 246 247 246 247 249 249 248 247 246 246 249 253 256 257 258 257 257 258 259 260 260 259 259 262 265 266 265 261 258 253 247 241 237 234 235 236 235 236 238 244 250 252 251 250 247 246 250 252 252 252 249 247 244 238 243 254 251 248 251 257 262 262 262 265 269 273 277 282 285 287 289 291 292 293 294 294
238 239 238 237 238 239 240 241 241 242 244 244 246 250 251 250 251 250 249 249 249 249 250 253 255 256 257 257 257 258 259 258 257 255 255 256 258 258 259 258 255 251 247 243 240 239 241 243 243 244 246 249 254 258 258 255 250 248 249 251 250 246 247 252 256 259 262 261 259 262 263 263 266 268 270 271 273 275 277 279 283 286 288 289 290 290 291 292
242 242 240 239 241 244 244 245 247 248 249 249 249 252 255 255 254 251 252 253 253 253 253 253 255 256 256 256 256 256 257 255 252 251 251 253 255 256 256 255 253 250 249 247 246 246 247 248 249 250 252 253 255 256 257 255 254 255 255 256 256 253 255 261 264 266 265 259 260 268 270 268 270 273 273 273 274 276 277 280 283 284 285 285 286 287 288 289
246 247 247 245 246 248 251 253 254 253 253 252 251 253 255 256 256 256 256 255 255 255 254 253 256 257 255 254 253 252 253 250 247 248 249 250 252 253 253 252 250 248 247 246 246 246 246 249 252 253 255 256 254 253 255 257 259 260 260 260 261 260 262 264 265 265 265 263 267 272 273 271 272 274 276 277 280 282 282 282 281 281 281 281 282 284 284 285
248 249 250 250 250 252 254 254 253 252 252 250 250 253 253 253 256 256 254 253 253 255 253 253 256 257 255 254 253 253 255 255 253 254 254 252 251 252 250 249 248 248 247 246 244 241 242 246 250 254 258 260 259 258 259 260 259 260 261 260 260 261 263 263 264 266 267 268 271 272 271 272 274 278 281 282 281 281 280 278 277 278 278 279 280 280 280 281
246 248 249 249 251 252 251 252 251 250 250 249 249 252 252 252 254 254 252 252 253 254 255 256 259 259 256 254 253 255 258 258 256 256 254 253 253 252 251 249 249 250 250 250 249 247 248 250 253 256 258 259 261 260 260 260 261 262 263 261 260 262 265 266 268 271 271 272 274 270 268 274 280 282 282 278 275 276 277 277 276 277 277 277 279 279 280 281
246 247 246 246 247 248 249 249 248 246 248 250 252 255 254 254 254 250 247 248 250 251 253 255 256 255 253 252 253 255 256 256 256 254 252 251 248 245 246 248 250 252 253 252 253 252 252 253 253 252 250 254 258 260 263 268 273 266 262 263 266 268 270 272 273 275 274 274 272 269 271 279 283 278 275 276 276 277 277 277 277 277 278 279 281 283 283 283
Height
3184 3184 3185 3185 3185 3186 3186 3186 3186 3186 3187 3187 3187 3187 3187 3187 3187 3187 3187 3187 3187 3186 3186 3186 3186 3187 3187 3187 3187 3186 3186 3186 3185 3185 3185 3185 3185 3184 3184 3184 3184 3184 3184 3184 3184 3183 3184 3184 3184 3184 3183 3183 3183 3183 3183 3182 3182 3182 3181 3182 3182 3182 3182 3182 3182 3181 3180 3180 3179 3179 3178 3177 3177 3177 3176 3175 3175 3175 3175 3176 3175 3173 3173 3173 3172 3171 3170 3170
3183 3183 3184 3184 3184 3185 3185 3185 3185 3185 3186 3186 3186 3186 3186 3186 3186 3186 3186 3185 3185 3185 3185 3185 3185 3185 3185 3185 3185 3185 3185 3185 3184 3183 3183 3183 3183 3183 3183 3182 3182 3183 3182 3182 3182 3182 3182 3182 3182 3182 3182 3182 3182 3182 3182 3181 3181 3180 3180 3181 3181 3181 3181 3181 3181 3180 3179 3179 3178 3178 3178 3177 3176 3175 3174 3173 3173 3173 3172 3173 3173 3171 3171 3171 3170 3169 3168 3167
3182 3182 3183 3183 3183 3184 3184 3184 3184 3184 3184 3184 3184 3184 3184 3184 3184 3184 3184 3184 3184 3184 3184 3184 3184 3184 3184 3184 3184 3184 3184 3183 3183 3182 3182 3182 3182 3182 3181 3181 3181 3181 3181 3181 3181 3181 3181 3181 3181 3181 3181 3181 3181 3181 3181 3180 3180 3179 3179 3180 3180 3179 3180 3180 3179 3179 3178 3178 3177 3177 3176 3176 3176 3174 3173 3171 3171 3171 3171 3170 3169 3169 3170 3169 3167 3166 3165 3165
3180 3181 3181 3182 3182 3182 3183 3183 3183 3183 3183 3183 3183 3183 3183 3183 3183 3183 3183 3183 3183 3183 3182 3182 3182 3182 3182 3182 3182 3182 3182 3182 3181 3181 3180 3180 3180 3180 3180 3180 3180 3180 3180 3180 3179 3179 3179 3179 3180 3180 3180 3180 3179 3179 3179 3179 3178 3178 3178 3178 3178 3178 3178 3178 3178 3178 3177 3176 3175 3175 3174 3174 3174 3173 3172 3170 3168 3169 3170 3168 3167 3167 3167 3167 3165 3164 3164 3164
3179 3179 3180 3180 3181 3181 3181 3181 3181 3182 3182 3182 3182 3182 3182 3181 3181 3181 3181 3181 3181 3181 3181 3181 3180 3180 3181 3181 3181 3181 3181 3181 3180 3179 3179 3179 3179 3179 3179 3179 3179 3179 3178 3178 3178 3178 3178 3178 3178 3178 3179 3178 3178 3178 3178 3177 3176 3176 3177 3177 3176 3176 3175 3176 3176 3175 3175 3174 3173 3173 3172 3171 3171 3171 3171 3169 3167 3167 3167 3167 3166 3166 3165 3165 3164 3163 3162 3162
3177 3178 3178 3179 3179 3179 3180 3180 3180 3180 3180 3180 3180 3180 3180 3180 3180 3180 3180 3179 3179 3179 3179 3179 3179 3179 3179 3179 3179 3179 3179 3179 3178 3178 3178 3178 3178 3178 3178 3177 3177 3177 3177 3177 3177 3177 3177 3177 3177 3177 3177 3177 3176 3176 3176 3175 3174 3174 3175 3175 3174 3174 3173 3173 3173 3173 3173 3172 3171 3170 3169 3169 3169 3169 3169 3168 3167 3166 3165 3165 3165 3164 3164 3163 3162 3162 3161 3160
3175 3176 3176 3177 3177 3177 3178 3178 3178 3178 3178 3178 3178 3178 3178 3178 3178 3178 3178 3178 3177 3177 3177 3177 3177 3177 3177 3177 3177 3178 3178 3178 3177 3177 3177 3176 3176 3176 3176 3176 3176 3176 3176 3176 3176 3176 3176 3176 3175 3175 3175 3175 3175 3175 3174 3173 3173 3172 3172 3172 3172 3172 3171 3171 3170 3170 3171 3170 3169 3168 3167 3167 3166 3165 3165 3166 3166 3165 3164 3163 3163 3163 3163 3162 3161 3160 3159 3158
3173 3173 3174 3175 3175 3176 3176 3176 3176 3176 3176 3176 3176 3176 3176 3176 3176 3176 3176 3176 3175 3175 3175 3175 3175 3175 3175 3175 3176 3176 3176 3176 3175 3175 3175 3175 3175 3175 3175 3175 3174 3174 3174 3174 3174 3174 3174 3174 3174 3173 3173 3173 3173 3173 3173 3172 3171 3170 3170 3170 3170 3169 3169 3169 3168 3168 3168 3168 3167 3166 3165 3165 3164 3162 3163 3164 3164 3163 3163 3162 3161 3161 3161 3160 3158 3156 3155 3154
3171 3171 3172 3172 3173 3173 3174 3174 3174 3174 3174 3174 3174 3174 3174 3174 3174 3174 3174 3174 3174 3173 3173 3173 3174 3174 3174 3174 3174 3174 3175 3175 3174 3174 3174 3174 3174 3173 3173 3173 3173 3173 3173 3172 3172 3173 3173 3172 3172 3172 3172 3171 3171 3171 3170 3170 3169 3169 3168 3167 3167 3167 3167 3167 3167 3167 3166 3165 3165 3163 3163 3164 3163 3161 3161 3162 3162 3161 3161 3161 3160 3158 3158 3157 3154 3152 3151 3151
3168 3169 3169 3170 3170 3171 3171 3171 3172 3172 3172 3172 3172 3172 3172 3171 3171 3171 3172 3172 3172 3171 3171 3172 3172 3172 3172 3172 3172 3173 3173 3173 3173 3173 3172 3172 3172 3172 3172 3172 3171 3171 3171 3170 3170 3171 3171 3171 3170 3170 3170 3169 3169 3168 3168 3168 3167 3167 3166 3165 3166 3166 3165 3165 3165 3165 3164 3163 3163 3161 3161 3162 3161 3160 3160 3160 3160 3159 3159 3159 3158 3156 3155 3153 3150 3149 3149 3149
3165 3166 3166 3167 3167 3168 3168 3169 3169 3169 3169 3169 3169 3169 3169 3169 3169 3169 3169 3170 3170 3169 3169 3170 3170 3170 3170 3170 3170 3170 3171 3171 3171 3171 3171 3170 3170 3170 3170 3170 3170 3169 3169 3168 3168 3168 3169 3169 3168 3168 3168 3167 3166 3166 3166 3165 3165 3164 3163 3163 3164 3163 3164 3164 3163 3162 3161 3161 3161 3159 3159 3159 3159 3158 3159 3158 3158 3157 3158 3157 3156 3154 3151 3149 3147 3147 3146 3146
3162 3163 3163 3164 3164 3165 3165 3166 3166 3166 3166 3167 3167 3166 3167 3167 3167 3167 3167 3167 3167 3167 3167 3168 3168 3168 3168 3168 3168 3168 3168 3169 3169 3169 3168 3168 3168 3168 3168 3167 3167 3167 3167 3166 3166 3166 3166 3166 3166 3166 3165 3165 3165 3164 3163 3163 3163 3163 3161 3160 3161 3161 3162 3163 3161 3160 3159 3159 3158 3156 3156 3157 3157 3157 3157 3156 3155 3154 3155 3155 3153 3150 3147 3146 3145 3144 3143 3143
3159 3160 3160 3161 3161 3162 3162 3163 3163 3163 3164 3164 3164 3164 3164 3164 3165 3165 3165 3165 3165 3165 3165 3165 3165 3165 3165 3165 3166 3166 3166 3166 3166 3166 3166 3166 3165 3165 3165 3165 3165 3165 3164 3164 3164 3164 3164 3164 3163 3163 3163 3163 3163 3162 3161 3161 3161 3161 3160 3158 3158 3158 3159 3161 3159 3158 3158 3157 3156 3154 3153 3154 3155 3155 3154 3154 3152 3151 3151 3151 3148 3146 3144 3143 3142 3140 3140 3139
3156 3157 3157 3158 3158 3159 3159 3160 3160 3161 3161 3161 3161 3162 3162 3162 3162 3162 3162 3163 3163 3163 3163 3163 3163 3163 3163 3163 3163 3163 3163 3163 3163 3163 3163 3163 3163 3163 3162 3162 3162 3162 3161 3161 3161 3161 3161 3161 3161 3161 3161 3161 3161 3160 3159 3159 3159 3158 3157 3156 3157 3156 3156 3158 3157 3156 3156 3155 3154 3153 3150 3150 3152 3152 3152 3151 3150 3148 3148 3147 3144 3142 3141 3140 3138 3137 3136 3135
3153 3154 3154 3155 3156 3156 3156 3157 3157 3158 3158 3158 3159 3159 3159 3159 3160 3160 3160 3160 3160 3160 3160 3160 3160 3160 3160 3160 3160 3160 3160 3160 3160 3160 3160 3160 3160 3160 3160 3160 3159 3159 3159 3159 3158 3158 3159 3159 3159 3159 3159 3159 3158 3157 3156 3156 3157 3156 3155 3155 3155 3154 3153 3155 3156 3154 3153 3152 3151 3150 3148 3147 3148 3149 3149 3148 3147 3146 3145 3144 3140 3138 3138 3137 3135 3134 3132 3132
3150 3150 3151 3152 3153 3153 3154 3154 3155 3155 3155 3156 3156 3156 3156 3157 3157 3157 3157 3157 3157 3157 3157 3157 3157 3157 3156 3157 3157 3157 3157 3157 3157 3157 3157 3157 3157 3157 3157 3156 3156 3157 3156 3156 3156 3156 3156 3156 3156 3156 3157 3157 3156 3155 3154 3154 3154 3154 3153 3152 3152 3152 3150 3151 3153 3153 3151 3149 3148 3147 3145 3144 3145 3145 3145 3145 3144 3143 3142 3140 3136 3135 3134 3133 3132 3131 3130 3130
3147 3147 3148 3149 3150 3150 3151 3151 3152 3152 3152 3152 3153 3153 3153 3153 3153 3154 3154 3154 3154 3154 3154 3154 3154 3154 3153 3154 3154 3154 3154 3154 3154 3154 3154 3155 3154 3154 3154 3154 3154 3154 3154 3154 3154 3153 3153 3153 3153 3154 3154 3154 3153 3153 3153 3152 3152 3152 3151 3150 3149 3149 3148 3148 3149 3150 3149 3147 3146 3145 3142 3141 3142 3142 3142 3143 3141 3139 3139 3136 3133 3132 3132 3131 3129 3129 3128 3128
3143 3144 3145 3146 3147 3147 3148 3148 3148 3149 3149 3149 3149 3150 3150 3150 3150 3150 3150 3150 3150 3150 3150 3150 3151 3150 3149 3150 3151 3151 3151 3151 3151 3151 3151 3152 3152 3151 3151 3151 3151 3151 3151 3151 3151 3151 3151 3151 3151 3151 3152 3151 3150 3151 3150 3149 3150 3150 3149 3148 3147 3146 3146 3146 3146 3147 3146 3144 3143 3142 3139 3138 3139 3139 3139 3140 3138 3137 3136 3133 3131 3130 3129 3128 3128 3127 3127 3127
3140 3141 3142 3142 3143 3144 3144 3145 3145 3146 3146 3146 3146 3146 3146 3147 3147 3147 3147 3147 3147 3147 3147 3147 3148 3147 3147 3148 3148 3148 3148 3148 3148 3149 3149 3149 3149 3148 3148 3148 3148 3148 3149 3148 3148 3148 3148 3148 3148 3148 3148 3148 3149 3149 3148 3148 3148 3147 3146 3145 3144 3143 3143 3143 3143 3144 3143 3140 3139 3139 3137 3136 3136 3137 3137 3136 3134 3134 3133 3130 3129 3128 3127 3126 3126 3126 3126 3125
3136 3137 3138 3139 3140 3140 3141 3141 3142 3142 3143 3143 3143 3143 3143 3143 3143 3143 3143 3144 3144 3144 3144 3144 3144 3144 3144 3144 3145 3145 3145 3145 3145 3145 3145 3145 3145 3145 3144 3145 3145 3145 3145 3145 3145 3145 3145 3144 3143 3144 3145 3146 3147 3147 3145 3145 3145 3144 3143 3142 3142 3140 3139 3140 3141 3141 3141 3138 3136 3136 3135 3133 3134 3134 3134 3133 3132 3131 3129 3128 3127 3126 3125 3125 3125 3125 3125 3124
3133 3134 3134 3135 3136 3137 3137 3138 3138 3139 3139 3140 3140 3140 3140 3141 3140 3139 3140 3140 3141 3141 3140 3141 3140 3140 3141 3141 3141 3142 3142 3141 3142 3142 3142 3142 3142 3141 3140 3141 3141 3141 3142 3142 3141 3141 3141 3139 3140 3142 3143 3144 3144 3144 3143 3142 3142 3141 3140 3139 3139 3138 3136 3137 3138 3138 3138 3135 3134 3134 3132 3132 3132 3131 3130 3130 3129 3128 3126 3126 3125 3124 3124 3124 3124 3123 3123 3122
3129 3130 3131 3132 3133 3133 3134 3134 3135 3136 3136 3137 3137 3137 3137 3137 3137 3136 3136 3136 3137 3137 3137 3137 3136 3136 3138 3137 3137 3139 3138 3137 3138 3139 3139 3138 3137 3137 3136 3136 3137 3138 3139 3138 3137 3138 3137 3136 3138 3140 3140 3140 3140 3140 3140 3139 3139 3138 3138 3137 3136 3135 3135 3135 3136 3136 3135 3133 3132 3131 3129 3129 3130 3128 3127 3127 3126 3126 3125 3123 3123 3122 3122 3122 3121 3121 3120 3120
3125 3126 3127 3128 3129 3130 3130 3131 3132 3132 3133 3133 3134 3134 3134 3134 3134 3133 3133 3131 3132 3134 3133 3133 3132 3132 3134 3134 3134 3135 3133 3134 3135 3134 3135 3133 3133 3133 3132 3132 3134 3135 3135 3134 3134 3134 3132 3134 3137 3137 3136 3136 3137 3138 3137 3136 3136 3136 3136 3134 3133 3133 3134 3133 3133 3134 3133 3131 3130 3129 3126 3126 3127 3124 3123 3124 3123 3123 3123 3122 3121 3120 3120 3119 3118 3118 3118 3117
3121 3123 3124 3125 3126 3126 3127 3128 3128 3129 3130 3130 3130 3131 3131 3131 3131 3130 3130 3128 3126 3128 3130 3129 3128 3128 3129 3130 3130 3130 3129 3129 3130 3130 3130 3129 3129 3129 3128 3129 3130 3130 3131 3131 3131 3129 3129 3132 3134 3133 3132 3133 3134 3134 3134 3133 3133 3133 3133 3132 3131 3132 3132 3131 3131 3131 3131 3129 3128 3127 3124 3122 3123 3121 3120 3121 3122 3121 3121 3120 3119 3118 3117 3116 3115 3115 3115 3115
3117 3119 3120 3121 3122 3122 3124 3124 3125 3126 3126 3127 3127 3127 3128 3128 3128 3128 3128 3125 3120 3122 3126 3125 3124 3124 3124 3125 3125 3125 3124 3124 3125 3125 3126 3126 3125 3125 3125 3126 3126 3126 3128 3128 3127 3125 3126 3129 3130 3129 3130 3130 3131 3131 3132 3132 3131 3131 3130 3130 3130 3130 3130 3130 3129 3129 3128 3127 3126 3126 3124 3120 3120 3120 3119 3119 3120 3119 3119 3118 3117 3116 3115 3114 3114 3114 3114 3114
3113 3114 3115 3117 3117 3118 3120 3120 3121 3123 3123 3124 3124 3124 3125 3125 3126 3125 3126 3123 3116 3116 3120 3120 3119 3119 3119 3120 3120 3120 3120 3119 3120 3121 3122 3122 3122 3123 3123 3123 3122 3124 3125 3125 3124 3122 3123 3126 3126 3126 3127 3127 3128 3128 3129 3130 3129 3129 3128 3128 3128 3128 3128 3128 3127 3127 3126 3125 3125 3126 3126 3120 3117 3119 3119 3117 3118 3117 3116 3115 3114 3113 3113 3112 3113 3113 3113 3112
3108 3109 3111 3112 3113 3115 3116 3117 3118 3119 3120 3121 3121 3122 3122 3122 3124 3124 3125 3122 3113 3111 3115 3115 3115 3114 3114 3115 3115 3116 3117 3116 3117 3118 3118 3119 3119 3120 3120 3120 3120 3121 3122 3122 3122 3121 3121 3123 3123 3123 3124 3125 3126 3126 3126 3127 3127 3127 3126 3126 3126 3126 3126 3126 3125 3126 3124 3123 3122 3124 3125 3119 3113 3115 3117 3115 3115 3114 3113 3112 3111 3111 3111 3111 3112 3112 3111 3111
3104 3105 3106 3108 3110 3111 3112 3113 3115 3117 3117 3117 3118 3119 3119 3120 3122 3122 3125 3123 3111 3107 3111 3111 3111 3111 3111 3112 3112 3113 3113 3113 3114 3115 3115 3116 3116 3117 3117 3117 3118 3119 3119 3119 3120 3120 3120 3121 3122 3122 3123 3123 3123 3124 3125 3125 3125 3124 3125 3125 3125 3125 3124 3124 3123 3123 3122 3121 3119 3120 3123 3118 3110 3110 3114 3113 3111 3111 3109 3109 3109 3109 3110 3110 3110 3110 3110 3110
3100 3101 3102 3104 3105 3106 3108 3110 3112 3114 3114 3114 3115 3116 3116 3118 3119 3120 3124 3120 3109 3106 3109 3109 3110 3110 3109 3110 3110 3111 3111 3112 3113 3113 3114 3114 3114 3115 3115 3115 3116 3117 3117 3117 3118 3119 3119 3120 3120 3121 3121 3121 3122 3123 3122 3123 3123 3123 3123 3124 3124 3123 3122 3122 3122 3121 3121 3118 3114 3115 3119 3116 3108 3106 3109 3109 3108 3108 3107 3107 3107 3107 3108 3108 3109 3109 3109 3108
3096 3097 3098 3099 3100 3102 3104 3107 3109 3110 3111 3111 3111 3112 3113 3114 3116 3119 3119 3112 3105 3106 3107 3107 3108 3108 3107 3108 3109 3110 3110 3111 3111 3111 3112 3112 3112 3113 3113 3114 3115 3115 3115 3115 3116 3117 3117 3118 3118 3119 3119 3120 3120 3120 3120 3121 3121 3121 3122 3122 3122 3122 3121 3121 3119 3119 3120 3114 3109 3112 3114 3114 3109 3104 3105 3107 3106 3107 3106 3105 3105 3106 3107 3107 3107 3107 3107 3107
3091 3093 3094 3094 3096 3099 3100 3103 3106 3106 3107 3107 3108 3109 3110 3110 3113 3114 3109 3104 3104 3105 3104 3105 3106 3105 3106 3107 3108 3108 3109 3109 3109 3109 3110 3110 3111 3111 3111 3112 3112 3113 3113 3113 3114 3114 3115 3115 3116 3116 3117 3118 3118 3118 3118 3119 3119 3119 3119 3119 3120 3120 3119 3119 3117 3118 3118 3111 3107 3110 3110 3111 3109 3104 3104 3105 3105 3105 3105 3104 3104 3105 3106 3106 3106 3106 3105 3105
3088 3089 3090 3091 3093 3094 3096 3100 3101 3102 3103 3104 3104 3105 3105 3107 3106 3103 3100 3102 3104 3102 3100 3103 3103 3104 3105 3105 3106 3107 3107 3107 3107 3108 3109 3109 3109 3109 3109 3110 3110 3111 3111 3111 3111 3111 3112 3112 3113 3114 3115 3115 3116 3116 3117 3116 3116 3117 3117 3118 3119 3120 3119 3118 3116 3116 3114 3108 3107 3109 3109 3108 3105 3102 3104 3104 3104 3104 3103 3104 3104 3104 3105 3105 3105 3104 3104 3104
3083 3084 3086 3087 3089 3090 3093 3096 3097 3098 3099 3100 3100 3100 3102 3102 3097 3094 3097 3101 3101 3098 3099 3101 3101 3103 3103 3103 3104 3105 3105 3106 3106 3107 3107 3107 3108 3108 3108 3109 3108 3109 3108 3109 3109 3109 3109 3110 3110 3111 3112 3112 3113 3113 3114 3114 3114 3114 3114 3116 3117 3119 3120 3117 3114 3114 3110 3107 3107 3108 3108 3105 3100 3100 3102 3102 3102 3103 3102 3103 3103 3103 3104 3103 3103 3103 3103 3103
3078 3080 3081 3083 3085 3086 3089 3091 3093 3094 3095 3095 3095 3097 3097 3095 3091 3091 3095 3097 3097 3097 3098 3100 3100 3101 3101 3101 3103 3103 3104 3105 3105 3105 3105 3105 3105 3106 3106 3106 3107 3107 3107 3108 3108 3108 3107 3107 3107 3108 3108 3109 3110 3110 3111 3111 3112 3112 3112 3113 3113 3113 3115 3113 3110 3109 3107 3105 3105 3106 3105 3101 3097 3098 3099 3099 3101 3101 3101 3101 3101 3101 3102 3102 3102 3102 3101 3101
3074 3076 3078 3079 3081 3082 3084 3087 3088 3090 3090 3089 3091 3092 3089 3087 3087 3090 3092 3094 3096 3096 3097 3098 3099 3099 3099 3100 3101 3101 3103 3103 3103 3103 3103 3103 3103 3103 3103 3104 3105 3105 3106 3106 3106 3106 3105 3104 3104 3106 3106 3106 3107 3108 3109 3109 3109 3109 3109 3110 3109 3108 3109 3108 3107 3106 3106 3105 3103 3102 3100 3097 3095 3096 3097 3098 3099 3099 3100 3099 3099 3099 3099 3100 3100 3099 3099 3099
3070 3072 3074 3075 3077 3079 3081 3082 3082 3084 3084 3084 3086 3084 3080 3081 3085 3088 3090 3092 3093 3093 3095 3096 3096 3097 3097 3097 3098 3099 3100 3100 3101 3101 3100 3100 3100 3100 3100 3101 3102 3103 3103 3104 3104 3103 3102 3101 3102 3103 3104 3104 3105 3105 3106 3106 3106 3106 3106 3106 3105 3106 3107 3107 3106 3104 3105 3105 3099 3095 3095 3094 3094 3093 3093 3096 3097 3097 3098 3098 3097 3097 3097 3098 3097 3097 3097 3096
3067 3069 3070 3072 3074 3075 3077 3078 3078 3079 3080 3081 3080 3076 3075 3079 3083 3085 3087 3089 3090 3091 3092 3092 3093 3094 3094 3094 3094 3096 3097 3098 3098 3099 3098 3099 3097 3096 3097 3098 3098 3099 3100 3101 3102 3101 3100 3099 3100 3101 3101 3102 3102 3103 3103 3103 3103 3103 3103 3103 3104 3105 3105 3105 3105 3104 3105 3104 3097 3092 3091 3091 3091 3089 3090 3093 3094 3094 3096 3095 3095 3096 3095 3095 3094 3094 3094 3094
3063 3065 3067 3069 3071 3072 3073 3074 3074 3075 3077 3077 3074 3072 3073 3077 3079 3083 3085 3086 3087 3088 3089 3089 3089 3090 3090 3090 3091 3093 3094 3095 3095 3096 3096 3096 3094 3092 3093 3094 3095 3096 3098 3099 3099 3098 3098 3097 3097 3098 3099 3099 3099 3100 3100 3100 3101 3101 3101 3102 3102 3102 3102 3103 3103 3102 3102 3101 3095 3090 3088 3087 3086 3086 3087 3090 3091 3092 3092 3093 3093 3093 3093 3092 3091 3091 3091 3091
3060 3062 3063 3065 3067 3069 3070 3072 3072 3073 3073 3071 3068 3068 3070 3072 3076 3080 3082 3083 3084 3085 3085 3086 3087 3087 3087 3087 3088 3089 3091 3091 3092 3093 3093 3092 3091 3089 3090 3091 3092 3093 3094 3095 3095 3095 3096 3096 3094 3094 3095 3096 3096 3096 3096 3096 3098 3098 3099 3099 3099 3099 3099 3099 3099 3097 3097 3097 3094 3090 3087 3083 3082 3084 3085 3087 3089 3089 3089 3090 3091 3091 3090 3090 3089 3089 3089 3089
3056 3057 3059 3061 3063 3065 3067 3068 3069 3069 3067 3064 3063 3065 3066 3067 3072 3076 3079 3080 3081 3081 3082 3082 3084 3084 3084 3084 3085 3086 3087 3088 3089 3089 3089 3088 3087 3087 3087 3088 3089 3090 3091 3093 3093 3093 3094 3093 3092 3091 3092 3093 3092 3092 3092 3094 3095 3095 3096 3096 3096 3096 3096 3096 3095 3093 3094 3094 3093 3090 3086 3080 3080 3082 3083 3085 3087 3087 3088 3088 3088 3088 3088 3088 3087 3087 3087 3087
3052 3053 3054 3057 3059 3060 3062 3064 3064 3064 3062 3059 3060 3062 3063 3065 3067 3071 3075 3076 3077 3077 3078 3079 3081 3081 3081 3082 3082 3082 3083 3084 3084 3085 3084 3084 3084 3084 3085 3085 3086 3087 3088 3090 3090 3091 3091 3090 3090 3089 3088 3088 3089 3089 3090 3091 3092 3092 3092 3092 3092 3093 3093 3094 3092 3090 3090 3090 3089 3088 3084 3079 3078 3079 3080 3082 3084 3085 3086 3086 3085 3085 3085 3085 3085 3085 3085 3084
3047 3048 3050 3053 3054 3055 3057 3058 3058 3059 3057 3056 3057 3059 3061 3062 3064 3067 3070 3072 3073 3074 3075 3076 3077 3077 3078 3078 3079 3079 3079 3080 3080 3079 3078 3079 3080 3081 3082 3083 3084 3084 3085 3086 3087 3088 3088 3088 3087 3086 3085 3086 3086 3086 3087 3088 3088 3089 3089 3089 3089 3090 3090 3090 3088 3086 3087 3086 3085 3085 3082 3077 3077 3078 3078 3079 3081 3082 3083 3083 3083 3083 3083 3083 3083 3082 3082 3081
3042 3043 3046 3048 3050 3051 3052 3052 3053 3053 3052 3053 3055 3057 3058 3059 3060 3063 3065 3067 3069 3070 3070 3071 3072 3073 3074 3075 3075 3075 3076 3076 3075 3075 3074 3075 3076 3077 3079 3080 3081 3082 3083 3083 3084 3085 3085 3085 3084 3083 3083 3083 3083 3083 3084 3085 3085 3085 3085 3086 3086 3086 3086 3086 3084 3084 3084 3082 3083 3084 3079 3075 3076 3077 3076 3076 3077 3079 3080 3080 3080 3081 3081 3081 3080 3080 3079 3078
3037 3040 3042 3044 3046 3047 3046 3046 3047 3048 3049 3051 3052 3053 3055 3055 3056 3058 3060 3062 3065 3065 3066 3066 3068 3069 3070 3072 3071 3072 3073 3073 3072 3072 3073 3072 3072 3074 3075 3076 3078 3079 3079 3080 3080 3081 3081 3081 3081 3081 3082 3081 3080 3080 3081 3082 3082 3081 3082 3083 3082 3082 3083 3082 3081 3082 3080 3078 3081 3081 3075 3072 3075 3076 3075 3075 3075 3076 3077 3077 3078 3079 3078 3078 3076 3076 3075 3073
3033 3035 3037 3039 3041 3042 3041 3041 3043 3045 3047 3048 3049 3050 3051 3051 3052 3054 3056 3058 3060 3061 3062 3063 3064 3066 3067 3068 3067 3067 3068 3069 3069 3070 3069 3069 3070 3071 3071 3072 3074 3075 3075 3076 3076 3077 3077 3077 3077 3077 3077 3076 3075 3076 3077 3078 3079 3078 3078 3079 3079 3078 3078 3078 3078 3078 3076 3075 3077 3075 3070 3071 3074 3073 3073 3074 3074 3074 3074 3074 3075 3075 3074 3073 3072 3071 3069 3068
3029 3031 3032 3034 3036 3036 3037 3038 3040 3040 3042 3044 3044 3046 3047 3047 3048 3051 3052 3054 3056 3057 3058 3059 3060 3061 3061 3062 3063 3063 3064 3065 3066 3065 3065 3066 3067 3067 3068 3069 3070 3071 3072 3072 3073 3073 3073 3072 3072 3072 3071 3070 3071 3072 3073 3074 3075 3075 3075 3075 3075 3075 3074 3074 3073 3073 3073 3074 3072 3069 3068 3069 3071 3071 3070 3072 3073 3072 3072 3072 3071 3070 3070 3069 3068 3067 3065 3063
3025 3025 3027 3029 3031 3031 3032 3034 3035 3036 3038 3040 3040 3041 3041 3043 3045 3046 3047 3049 3051 3053 3055 3055 3055 3055 3055 3057 3058 3059 3060 3061 3061 3061 3062 3062 3063 3064 3065 3065 3066 3067 3068 3069 3070 3070 3069 3068 3068 3068 3067 3068 3069 3069 3070 3070 3070 3071 3072 3072 3072 3072 3071 3069 3068 3069 3072 3070 3065 3064 3067 3067 3067 3068 3068 3068 3069 3069 3069 3068 3067 3066 3066 3065 3063 3062 3060 3059
3020 3020 3022 3025 3025 3026 3026 3028 3030 3032 3034 3036 3036 3037 3037 3038 3040 3041 3042 3044 3046 3048 3049 3048 3049 3050 3051 3053 3055 3055 3055 3057 3057 3057 3058 3058 3060 3061 3061 3062 3063 3063 3064 3065 3065 3066 3065 3064 3064 3065 3065 3066 3067 3067 3067 3066 3067 3067 3067 3066 3067 3067 3066 3065 3065 3066 3067 3063 3059 3061 3064 3062 3062 3064 3064 3064 3064 3064 3064 3064 3063 3062 3061 3059 3058 3057 3055 3054
3016 3017 3018 3020 3020 3021 3022 3024 3027 3029 3030 3031 3031 3032 3032 3032 3034 3036 3038 3040 3041 3042 3043 3042 3043 3045 3047 3049 3050 3050 3050 3051 3051 3052 3054 3055 3056 3057 3057 3058 3058 3059 3060 3061 3061 3062 3062 3061 3061 3062 3062 3062 3064 3064 3063 3063 3063 3062 3062 3061 3060 3061 3061 3061 3060 3060 3060 3058 3056 3058 3058 3056 3057 3059 3059 3060 3059 3058 3058 3058 3057 3056 3055 3054 3053 3052 3051 3050
3012 3013 3014 3015 3016 3017 3018 3020 3022 3023 3024 3026 3025 3026 3027 3028 3029 3032 3034 3035 3036 3036 3037 3037 3038 3042 3044 3045 3045 3044 3044 3046 3047 3048 3050 3051 3051 3052 3053 3053 3054 3055 3056 3057 3058 3059 3058 3058 3058 3058 3058 3059 3059 3060 3060 3060 3059 3058 3056 3055 3055 3055 3056 3055 3053 3053 3054 3053 3053 3054 3052 3050 3052 3055 3055 3054 3053 3052 3052 3052 3052 3051 3050 3049 3049 3048 3047 3046
3008 3009 3010 3011 3011 3013 3014 3015 3017 3018 3019 3019 3018 3020 3022 3023 3025 3028 3029 3030 3031 3031 3032 3033 3035 3038 3039 3040 3040 3039 3041 3043 3044 3044 3046 3046 3046 3048 3049 3049 3050 3052 3053 3054 3055 3055 3055 3055 3055 3056 3056 3055 3055 3057 3057 3056 3055 3053 3048 3046 3049 3051 3050 3049 3048 3049 3049 3047 3048 3049 3047 3045 3049 3051 3049 3048 3048 3047 3047 3047 3046 3046 3045 3044 3044 3043 3042 3041
3003 3004 3005 3006 3006 3008 3008 3010 3012 3012 3011 3012 3014 3016 3018 3019 3022 3024 3024 3025 3026 3027 3028 3030 3032 3034 3034 3034 3035 3037 3040 3041 3040 3041 3042 3041 3042 3043 3044 3045 3047 3048 3049 3050 3051 3051 3052 3052 3052 3054 3053 3052 3053 3054 3053 3054 3053 3046 3039 3040 3045 3046 3045 3044 3044 3044 3044 3043 3043 3043 3041 3042 3044 3045 3043 3043 3043 3042 3042 3041 3041 3040 3040 3039 3038 3038 3037 3037